Weather History for Hereford, TX

Change the Weather History Date:

Tuesday, June 10, 2014

  Actual Average (KAMA) Record (KAMA)
Temperature  
Mean Temperature 66 °F 73 °F  
Max Temperature 82 °F 86 °F 100 °F (1964)
Min Temperature 50 °F 60 °F 42 °F (1955)
Degree Days  
Heating Degree Days 0 0  
Month to date heating degree days 5  
Since 1 June heating degree days 5  
Since 1 July heating degree days 4176  
Cooling Degree Days 1 8  
Month to date cooling degree days 72  
Year to date cooling degree days 197  
Since 1 June cooling degree days 72  
Growing Degree Days 16 (Base 50)    
Moisture  
Dew Point 65 °F    
Average Humidity 99    
Maximum Humidity 100    
Minimum Humidity 97    
Precipitation  
Precipitation 0.00 in 0.12 in 4.92 in (1984)
Month to date precipitation 1.16  
Year to date precipitation 7.52  
Snow  
Snow 0.00 in 0.00 in T in (1954)
Month to date snowfall 0.0  
Since 1 June snowfall 0.0  
Since 1 July snowfall 17.8  
Snow Depth -    
Sea Level Pressure  
Sea Level Pressure 30.03 in    
Wind  
Wind Speed 8 mph (West)    
Max Wind Speed 13 mph    
Max Gust Speed 21 mph    
Visibility 10 miles    
Events      
T = Trace of Precipitation, MM = Missing Value Source: NWS Daily Summary

Daily Weather History Graph

Daily Weather History Graph

Search for Another Location

Airport:

Trip Planner

Search our weather history database for the weather conditions in past years. The results will help you decide how hot, cold, wet, or windy it might be!

Date:

Astronomy

Jun. 10, 2014 Rise Set
Actual Time 6:35 AM CDT 9:02 PM CDT
Civil Twilight 6:05 AM CDT 9:32 PM CDT
Nautical Twilight 5:29 AM CDT 10:08 PM CDT
Astronomical Twilight 4:49 AM CDT 10:48 PM CDT
Moon 6:35 PM CDT (6/10) 4:36 AM CDT (6/10)
Length of Visible Light 15h 26m
Length of Day
14h 27m
Waxing Gibbous, 92% of the Moon is Illuminated
Jun 10
Waxing Gibbous
Jun 12
Full
Jun 19
Last Quarter
Jun 27
New
Jul 5
First Quarter

Hourly Weather History & Observations

Time (CDT) Temp. Heat Index Dew Point Humidity Pressure Visibility Wind Dir Wind Speed Gust Speed Precip Events Conditions
12:15 AM 56.3 °F - 56.3 °F 100% 30.05 in 10.0 mi West 4.6 mph - N/A   Clear
12:35 AM 55.2 °F - 55.2 °F 100% 30.06 in 10.0 mi WNW 6.9 mph - N/A   Clear
12:55 AM 53.6 °F - 53.6 °F 100% 30.07 in 10.0 mi WSW 8.1 mph - N/A   Clear
1:15 AM 54.0 °F - 54.0 °F 100% 30.07 in 10.0 mi West 8.1 mph - N/A   Clear
1:35 AM 53.8 °F - 53.8 °F 100% 30.07 in 10.0 mi West 6.9 mph - N/A   Clear
1:55 AM 52.9 °F - 52.9 °F 100% 30.07 in 10.0 mi West 6.9 mph - N/A   Clear
2:15 AM 52.7 °F - 52.7 °F 100% 30.07 in 10.0 mi West 8.1 mph - N/A   Clear
2:35 AM 51.8 °F - 51.8 °F 100% 30.06 in 10.0 mi West 9.2 mph - N/A   Clear
2:55 AM 52.7 °F - 52.7 °F 100% 30.07 in 10.0 mi West 9.2 mph - N/A   Clear
3:15 AM 52.2 °F - 52.2 °F 100% 30.06 in 10.0 mi West 8.1 mph - N/A   Clear
3:35 AM 52.0 °F - 52.0 °F 100% 30.07 in 10.0 mi West 8.1 mph - N/A   Clear
4:15 AM 51.4 °F - 51.4 °F 100% 30.06 in 10.0 mi WNW 8.1 mph - N/A   Clear
4:35 AM 52.0 °F - 52.0 °F 100% 30.06 in 10.0 mi WNW 8.1 mph - N/A   Clear
4:55 AM 51.1 °F - 51.1 °F 100% 30.06 in 10.0 mi NNW 5.8 mph - N/A   Clear
5:15 AM 50.7 °F - 50.7 °F 100% 30.06 in 10.0 mi North 9.2 mph - N/A   Clear
5:35 AM 50.4 °F - 50.4 °F 100% 30.07 in 10.0 mi North 6.9 mph - N/A   Clear
5:55 AM 51.1 °F - 51.1 °F 100% 30.07 in 10.0 mi North 6.9 mph - N/A   Clear
6:15 AM 50.2 °F - 50.2 °F 100% 30.07 in 10.0 mi NW 6.9 mph - N/A   Clear
6:35 AM 50.0 °F - 50.0 °F 100% 30.07 in 10.0 mi NW 8.1 mph - N/A   Clear
6:55 AM 50.9 °F - 50.9 °F 100% 30.08 in 10.0 mi NW 6.9 mph - N/A   Clear
7:15 AM 51.6 °F - 51.6 °F 100% 30.08 in 10.0 mi WNW 6.9 mph - N/A   Clear
7:35 AM 52.9 °F - 52.9 °F 100% 30.09 in 10.0 mi WNW 5.8 mph - N/A   Clear
7:55 AM 54.5 °F - 54.5 °F 100% 30.09 in 10.0 mi WNW 6.9 mph - N/A   Clear
8:15 AM 56.3 °F - 56.3 °F 100% 30.09 in 10.0 mi NW 8.1 mph - N/A   Clear
8:35 AM 57.9 °F - 57.9 °F 100% 30.09 in 10.0 mi NW 9.2 mph - N/A   Clear
8:55 AM 59.4 °F - 59.4 °F 100% 30.10 in 10.0 mi NW 9.2 mph - N/A   Clear
9:15 AM 61.0 °F - 61.0 °F 100% 30.10 in 10.0 mi NNW 11.5 mph - N/A   Clear
9:35 AM 62.2 °F - 62.2 °F 100% 30.10 in 10.0 mi NNW 10.4 mph - N/A   Clear
9:55 AM 63.5 °F - 63.5 °F 100% 30.10 in 10.0 mi NW 9.2 mph - N/A   Clear
10:15 AM 64.8 °F - 64.8 °F 100% 30.10 in 10.0 mi NW 6.9 mph - N/A   Clear
10:35 AM 66.0 °F - 66.0 °F 100% 30.10 in 10.0 mi NW 4.6 mph - N/A   Clear
10:55 AM 67.1 °F - 67.1 °F 100% 30.09 in 10.0 mi WNW 5.8 mph - N/A   Clear
11:15 AM 68.2 °F - 68.2 °F 100% 30.09 in 10.0 mi NW 4.6 mph - N/A   Clear
11:35 AM 69.4 °F - 69.4 °F 100% 30.08 in 10.0 mi WNW 6.9 mph - N/A   Clear
11:55 AM 70.2 °F - 70.0 °F 99% 30.08 in 10.0 mi West 4.6 mph - N/A   Clear
12:15 PM 71.8 °F - 71.6 °F 99% 30.08 in 10.0 mi WSW 8.1 mph - N/A   Clear
12:55 PM 73.6 °F - 73.4 °F 99% 30.07 in 10.0 mi Calm Calm - N/A   Clear
1:15 PM 74.3 °F - 73.9 °F 99% 30.06 in 10.0 mi SW 10.4 mph - N/A   Clear
1:35 PM 75.9 °F - 75.7 °F 99% 30.05 in 10.0 mi SW 9.2 mph - N/A   Clear
2:15 PM 78.6 °F - 78.4 °F 99% 30.04 in 10.0 mi West 10.4 mph 18.4 mph N/A   Clear
2:35 PM 78.8 °F - 78.4 °F 99% 30.04 in 10.0 mi WSW 9.2 mph - N/A   Clear
2:55 PM 79.5 °F - 79.2 °F 99% 30.03 in 10.0 mi North - - N/A   Clear
3:55 PM 80.6 °F 89.1 °F 80.2 °F 99% 30.01 in 10.0 mi SW 9.2 mph 18.4 mph N/A   Clear
4:15 PM 81.1 °F 91.0 °F 80.8 °F 99% 30.00 in 10.0 mi North - - N/A   Clear
4:55 PM 82.2 °F 94.7 °F 81.7 °F 98% 29.99 in 10.0 mi North - - N/A   Clear
5:15 PM 82.4 °F 95.7 °F 82.0 °F 99% 29.98 in 10.0 mi SSW 12.7 mph - N/A   Clear
5:35 PM 82.4 °F 95.4 °F 81.9 °F 98% 29.97 in 10.0 mi SW 12.7 mph - N/A   Clear
5:55 PM 82.4 °F 95.7 °F 82.0 °F 99% 29.96 in 10.0 mi SW 10.4 mph 16.1 mph N/A   Clear
6:15 PM 82.6 °F 96.4 °F 82.4 °F 99% 29.95 in 10.0 mi SW 9.2 mph - N/A   Clear
6:55 PM 82.9 °F 97.9 °F 82.6 °F 99% 29.94 in 10.0 mi SSW 10.4 mph - N/A   Clear
7:15 PM 82.8 °F 97.2 °F 82.4 °F 99% 29.94 in 10.0 mi SW 9.2 mph - N/A   Clear
7:35 PM 82.4 °F 95.4 °F 81.9 °F 98% 29.94 in 10.0 mi SSW 9.2 mph - N/A   Clear
7:55 PM 81.5 °F 92.3 °F 81.3 °F 99% 29.94 in 10.0 mi SSW 6.9 mph - N/A   Clear
8:15 PM 79.9 °F - 79.3 °F 98% 29.95 in 10.0 mi SSW 5.8 mph - N/A   Clear
8:35 PM 77.0 °F - 76.5 °F 98% 29.95 in 10.0 mi SSE 3.5 mph - N/A   Clear
8:55 PM 74.5 °F - 73.6 °F 97% 29.94 in 10.0 mi ESE 11.5 mph - N/A   Clear
9:15 PM 70.5 °F - 70.2 °F 99% 29.94 in 10.0 mi ESE 9.2 mph - N/A   Clear
9:35 PM 69.8 °F - 69.8 °F 100% 29.94 in 10.0 mi SE 8.1 mph - N/A   Clear
10:15 PM 68.5 °F - 68.4 °F 99% 29.95 in 10.0 mi SE 9.2 mph - N/A   Clear
10:35 PM 68.4 °F - 68.2 °F 99% 29.95 in 10.0 mi SSE 9.2 mph - N/A   Clear
10:55 PM 69.4 °F - 69.4 °F 100% 29.95 in 10.0 mi SSE 10.4 mph 17.3 mph N/A   Clear
11:15 PM 70.0 °F - 69.8 °F 99% 29.95 in 10.0 mi SSE 10.4 mph 20.7 mph N/A   Clear
11:35 PM 68.9 °F - 68.9 °F 100% 29.96 in 10.0 mi SSE 11.5 mph - N/A   Clear
11:55 PM 67.6 °F - 67.5 °F 99% 29.97 in 10.0 mi SSE 9.2 mph - N/A   Clear